| time (UTC) | temp F | wind direction | speed MPH | gust MPH | rain 1hr in | rain 24hr in | rain mn in | humidity % | barometer mb |
| 20260510214535 | 70 | 32 | 9.0 | 15.0 | 0.00 | 0.00 | 0.00 | 69 | 1014.9 |
| 20260510214106 | 70 | 36 | 9.0 | 14.0 | 0.00 | 0.00 | 0.00 | 69 | 1014.9 |
| 20260510213520 | 71 | 34 | 8.0 | 14.0 | 0.00 | 0.00 | 0.00 | 69 | 1014.9 |
| 20260510213104 | 70 | 32 | 9.0 | 13.0 | 0.00 | 0.00 | 0.00 | 69 | 1014.9 |
| 20260510212516 | 71 | 35 | 7.0 | 12.0 | 0.00 | 0.00 | 0.00 | 68 | 1014.8 |
| 20260510212111 | 71 | 32 | 7.0 | 12.0 | 0.00 | 0.00 | 0.00 | 70 | 1014.9 |
| 20260510211555 | 69 | 36 | 9.0 | 14.0 | 0.00 | 0.00 | 0.00 | 70 | 1014.9 |
| 20260510211049 | 70 | 34 | 7.0 | 14.0 | 0.00 | 0.00 | 0.00 | 69 | 1014.9 |
| 20260510210544 | 70 | 35 | 7.0 | 12.0 | 0.00 | 0.00 | 0.00 | 68 | 1014.9 |
| 20260510210108 | 70 | 35 | 7.0 | 12.0 | 0.00 | 0.00 | 0.00 | 65 | 1015.0 |
| 20260510210026 | 70 | 35 | 7.0 | 12.0 | 0.00 | 0.00 | 0.00 | 65 | 1015.0 |
| 20260510205521 | 71 | 32 | 6.0 | 11.0 | 0.00 | 0.00 | 0.00 | 65 | 1015.0 |
| 20260510205056 | 71 | 36 | 6.0 | 12.0 | 0.00 | 0.00 | 0.00 | 66 | 1015.0 |
| 20260510205014 | 71 | 36 | 6.0 | 12.0 | 0.00 | 0.00 | 0.00 | 66 | 1015.0 |
| 20260510204517 | 70 | 36 | 7.0 | 12.0 | 0.00 | 0.00 | 0.00 | 67 | 1015.0 |
| 20260510204013 | 70 | 32 | 8.0 | 15.0 | 0.00 | 0.00 | 0.00 | 65 | 1015.0 |
| 20260510203528 | 71 | 34 | 8.0 | 15.0 | 0.00 | 0.00 | 0.00 | 66 | 1015.0 |
| 20260510203052 | 71 | 32 | 9.0 | 15.0 | 0.00 | 0.00 | 0.00 | 66 | 1014.9 |
| 20260510202547 | 71 | 34 | 7.0 | 11.0 | 0.00 | 0.00 | 0.00 | 67 | 1015.0 |
| 20260510202022 | 71 | 36 | 8.0 | 13.0 | 0.00 | 0.00 | 0.00 | 66 | 1015.0 |
| 20260510201607 | 71 | 36 | 7.0 | 13.0 | 0.00 | 0.00 | 0.00 | 69 | 1015.0 |
| 20260510201020 | 70 | 34 | 9.0 | 13.0 | 0.00 | 0.00 | 0.00 | 68 | 1014.9 |
| 20260510200537 | 72 | 37 | 8.0 | 13.0 | 0.00 | 0.00 | 0.00 | 67 | 1015.0 |
| 20260510200101 | 71 | 36 | 8.0 | 14.0 | 0.00 | 0.00 | 0.00 | 67 | 1015.0 |
| 20260510200018 | 71 | 36 | 8.0 | 14.0 | 0.00 | 0.00 | 0.00 | 67 | 1015.0 |
| 20260510195613 | 71 | 36 | 8.0 | 14.0 | 0.00 | 0.00 | 0.00 | 67 | 1015.0 |
| 20260510195106 | 71 | 35 | 8.0 | 13.0 | 0.00 | 0.00 | 0.00 | 65 | 1014.9 |
| 20260510195024 | 71 | 35 | 8.0 | 13.0 | 0.00 | 0.00 | 0.00 | 65 | 1014.9 |
| 20260510194547 | 72 | 32 | 6.0 | 14.0 | 0.00 | 0.00 | 0.00 | 66 | 1014.9 |
| 20260510194043 | 71 | 32 | 8.0 | 14.0 | 0.00 | 0.00 | 0.00 | 67 | 1014.9 |
| 20260510193557 | 71 | 35 | 7.0 | 12.0 | 0.00 | 0.00 | 0.00 | 66 | 1015.0 |
| 20260510193515 | 71 | 35 | 7.0 | 12.0 | 0.00 | 0.00 | 0.00 | 66 | 1015.0 |
| 20260510193037 | 71 | 34 | 7.0 | 11.0 | 0.00 | 0.00 | 0.00 | 66 | 1014.8 |
| 20260510192551 | 71 | 36 | 7.0 | 11.0 | 0.00 | 0.00 | 0.00 | 67 | 1014.8 |
| 20260510192025 | 72 | 35 | 7.0 | 14.0 | 0.00 | 0.00 | 0.00 | 66 | 1014.8 |
| 20260510191548 | 71 | 36 | 9.0 | 14.0 | 0.00 | 0.00 | 0.00 | 67 | 1014.9 |
| 20260510191023 | 72 | 35 | 10.0 | 13.0 | 0.00 | 0.00 | 0.00 | 66 | 1014.9 |
| 20260510190539 | 72 | 36 | 7.0 | 11.0 | 0.00 | 0.00 | 0.00 | 66 | 1014.9 |
| 20260510190043 | 72 | 36 | 7.0 | 11.0 | 0.00 | 0.00 | 0.00 | 66 | 1014.8 |
| 20260510185557 | 72 | 36 | 5.0 | 10.0 | 0.00 | 0.00 | 0.00 | 66 | 1014.8 |
| 20260510185515 | 72 | 36 | 5.0 | 10.0 | 0.00 | 0.00 | 0.00 | 66 | 1014.8 |
| 20260510185031 | 72 | 36 | 5.0 | 9.0 | 0.00 | 0.00 | 0.00 | 66 | 1014.8 |
| 20260510184555 | 72 | 35 | 6.0 | 11.0 | 0.00 | 0.00 | 0.00 | 65 | 1014.8 |
| 20260510184050 | 72 | 36 | 6.0 | 11.0 | 0.00 | 0.00 | 0.00 | 65 | 1014.8 |
| 20260510183525 | 73 | 35 | 6.0 | 10.0 | 0.00 | 0.00 | 0.00 | 66 | 1014.8 |
| 20260510183048 | 73 | 35 | 4.0 | 11.0 | 0.00 | 0.00 | 0.00 | 65 | 1014.7 |
| 20260510182543 | 71 | 38 | 5.0 | 11.0 | 0.00 | 0.00 | 0.00 | 67 | 1014.8 |
| 20260510182037 | 71 | 35 | 3.0 | 10.0 | 0.00 | 0.00 | 0.00 | 67 | 1014.7 |
| 20260510181538 | 70 | 36 | 5.0 | 10.0 | 0.00 | 0.00 | 0.00 | 68 | 1014.8 |
| 20260510181112 | 71 | 34 | 3.0 | 9.0 | 0.00 | 0.00 | 0.00 | 68 | 1014.8 |
| 20260510180525 | 71 | 35 | 4.0 | 9.0 | 0.00 | 0.00 | 0.00 | 70 | 1014.8 |
| 20260510180049 | 70 | 34 | 4.0 | 8.0 | 0.00 | 0.00 | 0.00 | 70 | 1014.8 |
| 20260510175545 | 69 | 35 | 4.0 | 8.0 | 0.00 | 0.00 | 0.00 | 71 | 1014.9 |
| 20260510175020 | 69 | 32 | 5.0 | 8.0 | 0.00 | 0.00 | 0.00 | 71 | 1014.9 |
| 20260510174543 | 69 | 35 | 2.0 | 7.0 | 0.00 | 0.00 | 0.00 | 72 | 1014.9 |
| 20260510174039 | 68 | 34 | 4.0 | 9.0 | 0.00 | 0.00 | 0.00 | 72 | 1014.9 |
| 20260510173535 | 68 | 37 | 4.0 | 9.0 | 0.00 | 0.00 | 0.00 | 71 | 1014.9 |
| 20260510173059 | 68 | 37 | 1.0 | 7.0 | 0.00 | 0.00 | 0.00 | 74 | 1014.9 |
| 20260510172552 | 67 | 37 | 4.0 | 8.0 | 0.00 | 0.00 | 0.00 | 75 | 1015.0 |
| 20260510172048 | 67 | 35 | 4.0 | 8.0 | 0.00 | 0.00 | 0.00 | 75 | 1015.0 |
| 20260510171527 | 67 | 38 | 2.0 | 7.0 | 0.00 | 0.00 | 0.00 | 75 | 1014.9 |
| 20260510171102 | 66 | 34 | 4.0 | 9.0 | 0.00 | 0.00 | 0.00 | 75 | 1014.9 |
| 20260510171020 | 66 | 34 | 4.0 | 9.0 | 0.00 | 0.00 | 0.00 | 75 | 1014.9 |
| 20260510170537 | 66 | 34 | 3.0 | 6.0 | 0.00 | 0.00 | 0.00 | 76 | 1014.9 |
| 20260510170101 | 65 | 38 | 3.0 | 6.0 | 0.00 | 0.00 | 0.00 | 78 | 1014.8 |
| 20260510165514 | 65 | 36 | 2.0 | 5.0 | 0.00 | 0.00 | 0.00 | 78 | 1014.8 |
| 20260510165030 | 64 | 38 | 2.0 | 5.0 | 0.00 | 0.00 | 0.00 | 78 | 1014.8 |
| 20260510164533 | 64 | 38 | 2.0 | 6.0 | 0.00 | 0.00 | 0.00 | 79 | 1014.7 |
| 20260510164107 | 64 | 38 | 1.0 | 6.0 | 0.00 | 0.00 | 0.00 | 80 | 1014.8 |
| 20260510163600 | 63 | 35 | 3.0 | 6.0 | 0.00 | 0.00 | 0.00 | 82 | 1014.8 |
| 20260510163518 | 63 | 35 | 3.0 | 6.0 | 0.00 | 0.00 | 0.00 | 82 | 1014.8 |
| 20260510163041 | 62 | 38 | 2.0 | 6.0 | 0.00 | 0.00 | 0.00 | 82 | 1014.7 |
| 20260510162515 | 62 | 38 | 3.0 | 8.0 | 0.00 | 0.00 | 0.00 | 82 | 1014.8 |
| 20260510162110 | 62 | 36 | 3.0 | 7.0 | 0.00 | 0.00 | 0.00 | 82 | 1014.8 |
| 20260510161530 | 62 | 36 | 2.0 | 6.0 | 0.00 | 0.00 | 0.00 | 85 | 1014.7 |
| 20260510161027 | 61 | 35 | 3.0 | 5.0 | 0.00 | 0.00 | 0.00 | 86 | 1014.7 |
| 20260510160541 | 61 | 37 | 2.0 | 5.0 | 0.00 | 0.00 | 0.00 | 86 | 1014.6 |
| 20260510160114 | 61 | 36 | 3.0 | 5.0 | 0.00 | 0.00 | 0.00 | 86 | 1014.5 |
| 20260510155547 | 61 | 36 | 2.0 | 5.0 | 0.00 | 0.00 | 0.00 | 86 | 1014.5 |
| 20260510155042 | 61 | 36 | 1.0 | 4.0 | 0.00 | 0.00 | 0.00 | 87 | 1014.5 |
| 20260510154543 | 60 | 38 | 1.0 | 7.0 | 0.00 | 0.00 | 0.00 | 88 | 1014.5 |
| 20260510154037 | 60 | 35 | 3.0 | 7.0 | 0.00 | 0.00 | 0.00 | 88 | 1014.5 |
| 20260510153553 | 60 | 35 | 3.0 | 5.0 | 0.00 | 0.00 | 0.00 | 86 | 1014.5 |
| 20260510153054 | 60 | 34 | 1.0 | 3.0 | 0.00 | 0.00 | 0.00 | 86 | 1014.6 |
| 20260510152529 | 60 | 38 | 1.0 | 3.0 | 0.00 | 0.00 | 0.00 | 87 | 1014.5 |
| 20260510152105 | 60 | 36 | 1.0 | 2.0 | 0.00 | 0.00 | 0.00 | 87 | 1014.4 |
| 20260510151547 | 60 | 37 | 1.0 | 3.0 | 0.00 | 0.00 | 0.00 | 87 | 1014.4 |
| 20260510151041 | 60 | 37 | 1.0 | 3.0 | 0.00 | 0.00 | 0.00 | 88 | 1014.4 |
| 20260510150537 | 60 | 36 | 1.0 | 3.0 | 0.00 | 0.00 | 0.00 | 88 | 1014.4 |
| 20260510150100 | 60 | 38 | 1.0 | 4.0 | 0.00 | 0.00 | 0.00 | 89 | 1014.3 |
| 20260510150018 | 60 | 38 | 1.0 | 4.0 | 0.00 | 0.00 | 0.00 | 89 | 1014.3 |
| 20260510145533 | 59 | 35 | 0.0 | 2.0 | 0.00 | 0.00 | 0.00 | 89 | 1014.3 |
| 20260510145028 | 59 | 37 | 1.0 | 4.0 | 0.00 | 0.00 | 0.00 | 89 | 1014.4 |
| 20260510144550 | 59 | 36 | 2.0 | 5.0 | 0.00 | 0.00 | 0.00 | 89 | 1014.3 |
| 20260510144025 | 59 | 35 | 1.0 | 5.0 | 0.00 | 0.00 | 0.00 | 89 | 1014.3 |
| 20260510143600 | 59 | 37 | 2.0 | 6.0 | 0.00 | 0.00 | 0.00 | 89 | 1014.3 |
| 20260510143112 | 59 | 36 | 2.0 | 6.0 | 0.00 | 0.00 | 0.00 | 88 | 1014.3 |
| 20260510143030 | 59 | 36 | 2.0 | 6.0 | 0.00 | 0.00 | 0.00 | 88 | 1014.3 |
| 20260510142605 | 59 | 38 | 2.0 | 4.0 | 0.00 | 0.00 | 0.00 | 89 | 1014.3 |
| 20260510142522 | 59 | 38 | 2.0 | 4.0 | 0.00 | 0.00 | 0.00 | 89 | 1014.3 |
| 20260510142058 | 59 | 36 | 2.0 | 4.0 | 0.00 | 0.00 | 0.00 | 89 | 1014.3 |
| 20260510141517 | 59 | 35 | 1.0 | 4.0 | 0.00 | 0.00 | 0.00 | 89 | 1014.2 |
| 20260510141054 | 59 | 38 | 1.0 | 6.0 | 0.00 | 0.00 | 0.00 | 88 | 1014.2 |
| 20260510140549 | 59 | 35 | 2.0 | 6.0 | 0.00 | 0.00 | 0.00 | 88 | 1014.1 |
| 20260510140049 | 60 | 38 | 3.0 | 5.0 | 0.00 | 0.00 | 0.00 | 88 | 1014.0 |
| 20260510135543 | 60 | 36 | 2.0 | 4.0 | 0.00 | 0.00 | 0.00 | 88 | 1014.0 |
| 20260510135057 | 60 | 35 | 2.0 | 4.0 | 0.00 | 0.00 | 0.00 | 88 | 1014.0 |
| 20260510134553 | 60 | 37 | 1.0 | 4.0 | 0.00 | 0.00 | 0.00 | 88 | 1014.0 |
| 20260510134027 | 59 | 35 | 2.0 | 4.0 | 0.00 | 0.00 | 0.00 | 88 | 1013.9 |
| 20260510133527 | 60 | 38 | 1.0 | 4.0 | 0.00 | 0.00 | 0.00 | 88 | 1013.9 |
| 20260510133027 | 60 | 34 | 0.0 | 2.0 | 0.00 | 0.00 | 0.00 | 89 | 1013.9 |
| 20260510132544 | 60 | 35 | 0.0 | 3.0 | 0.00 | 0.00 | 0.00 | 89 | 1013.8 |
| 20260510132018 | 59 | 32 | 1.0 | 5.0 | 0.00 | 0.00 | 0.00 | 89 | 1013.8 |
| 20260510131521 | 59 | 35 | 3.0 | 7.0 | 0.00 | 0.00 | 0.00 | 89 | 1013.8 |
| 20260510131018 | 59 | 38 | 4.0 | 7.0 | 0.00 | 0.00 | 0.00 | 89 | 1013.8 |
| 20260510130553 | 59 | 38 | 1.0 | 3.0 | 0.00 | 0.00 | 0.00 | 89 | 1013.8 |
| 20260510130032 | 59 | 36 | 0.0 | 2.0 | 0.00 | 0.00 | 0.00 | 89 | 1013.8 |
| 20260510125608 | 59 | 38 | 0.0 | 2.0 | 0.00 | 0.00 | 0.00 | 89 | 1013.8 |
| 20260510125021 | 59 | 35 | 1.0 | 6.0 | 0.00 | 0.00 | 0.00 | 89 | 1013.7 |
| 20260510124546 | 59 | 32 | 2.0 | 6.0 | 0.00 | 0.00 | 0.00 | 89 | 1013.7 |
| 20260510124040 | 59 | 35 | 0.0 | 5.0 | 0.00 | 0.00 | 0.00 | 89 | 1013.7 |
| 20260510123515 | 59 | 34 | 2.0 | 5.0 | 0.00 | 0.00 | 0.00 | 88 | 1013.7 |
| 20260510123058 | 59 | 38 | 3.0 | 5.0 | 0.00 | 0.00 | 0.00 | 88 | 1013.6 |
| 20260510122531 | 60 | 35 | 3.0 | 5.0 | 0.00 | 0.00 | 0.00 | 88 | 1013.6 |
| 20260510122049 | 60 | 34 | 2.0 | 3.0 | 0.00 | 0.00 | 0.00 | 88 | 1013.6 |
| 20260510121528 | 60 | 35 | 2.0 | 3.0 | 0.00 | 0.00 | 0.00 | 88 | 1013.8 |
| 20260510121044 | 60 | 38 | 1.0 | 2.0 | 0.00 | 0.00 | 0.00 | 88 | 1013.7 |
| 20260510120539 | 60 | 36 | 0.0 | 4.0 | 0.00 | 0.00 | 0.00 | 88 | 1013.6 |
| 20260510120113 | 60 | 36 | 1.0 | 4.0 | 0.00 | 0.00 | 0.00 | 88 | 1013.6 |
| 20260510115606 | 60 | 38 | 1.0 | 4.0 | 0.00 | 0.00 | 0.00 | 88 | 1013.6 |
| 20260510115523 | 60 | 38 | 1.0 | 4.0 | 0.00 | 0.00 | 0.00 | 88 | 1013.6 |
| 20260510115038 | 60 | 35 | 2.0 | 4.0 | 0.00 | 0.00 | 0.00 | 88 | 1013.6 |
| 20260510114602 | 60 | 38 | 0.0 | 2.0 | 0.00 | 0.00 | 0.00 | 88 | 1013.6 |
| 20260510114035 | 60 | 38 | 1.0 | 5.0 | 0.00 | 0.00 | 0.00 | 88 | 1013.6 |
| 20260510113551 | 60 | 37 | 2.0 | 5.0 | 0.00 | 0.00 | 0.00 | 88 | 1013.7 |
| 20260510113053 | 60 | 38 | 2.0 | 5.0 | 0.00 | 0.00 | 0.00 | 88 | 1013.6 |
| 20260510112527 | 60 | 34 | 1.0 | 8.0 | 0.00 | 0.00 | 0.00 | 88 | 1013.5 |
| 20260510112102 | 60 | 38 | 2.0 | 8.0 | 0.00 | 0.00 | 0.00 | 88 | 1013.6 |
| 20260510112020 | 60 | 38 | 2.0 | 8.0 | 0.00 | 0.00 | 0.00 | 88 | 1013.6 |
| 20260510111523 | 60 | 36 | 1.0 | 6.0 | 0.00 | 0.00 | 0.00 | 87 | 1013.7 |
| 20260510111058 | 60 | 36 | 2.0 | 4.0 | 0.00 | 0.00 | 0.00 | 87 | 1013.7 |
| 20260510110608 | 60 | 35 | 1.0 | 3.0 | 0.00 | 0.00 | 0.00 | 87 | 1013.6 |
| 20260510110526 | 60 | 35 | 1.0 | 3.0 | 0.00 | 0.00 | 0.00 | 87 | 1013.6 |
| 20260510110110 | 60 | 34 | 1.0 | 3.0 | 0.00 | 0.00 | 0.00 | 87 | 1013.8 |
| 20260510110028 | 60 | 34 | 1.0 | 3.0 | 0.00 | 0.00 | 0.00 | 87 | 1013.8 |
| 20260510105523 | 60 | 34 | 1.0 | 4.0 | 0.00 | 0.00 | 0.00 | 87 | 1013.7 |
| 20260510105038 | 60 | 35 | 2.0 | 4.0 | 0.00 | 0.00 | 0.00 | 86 | 1013.8 |
| 20260510104539 | 61 | 34 | 2.0 | 4.0 | 0.00 | 0.00 | 0.00 | 86 | 1013.7 |
| 20260510104113 | 61 | 36 | 0.0 | 1.0 | 0.00 | 0.00 | 0.00 | 87 | 1013.7 |
| 20260510103526 | 61 | 35 | 0.0 | 2.0 | 0.00 | 0.00 | 0.00 | 86 | 1013.8 |
| 20260510103028 | 61 | 38 | 0.0 | 2.0 | 0.00 | 0.00 | 0.00 | 86 | 1013.7 |
| 20260510102545 | 61 | 35 | 0.0 | 0.0 | 0.00 | 0.00 | 0.00 | 86 | 1013.8 |
| 20260510102100 | 61 | 35 | 0.0 | 2.0 | 0.00 | 0.00 | 0.00 | 87 | 1013.7 |
| 20260510102017 | 61 | 35 | 0.0 | 2.0 | 0.00 | 0.00 | 0.00 | 87 | 1013.7 |
| 20260510101613 | 60 | 35 | 0.0 | 2.0 | 0.00 | 0.00 | 0.00 | 87 | 1013.7 |
| 20260510101530 | 60 | 35 | 0.0 | 2.0 | 0.00 | 0.00 | 0.00 | 87 | 1013.7 |
| 20260510101026 | 60 | 38 | 0.0 | 2.0 | 0.00 | 0.00 | 0.00 | 87 | 1013.8 |
| 20260510100543 | 60 | 38 | 0.0 | 1.0 | 0.00 | 0.00 | 0.00 | 87 | 1013.7 |
| 20260510100029 | 60 | 35 | 1.0 | 2.0 | 0.00 | 0.00 | 0.00 | 87 | 1013.8 |
| 20260510095525 | 60 | 35 | 1.0 | 3.0 | 0.00 | 0.00 | 0.00 | 87 | 1013.8 |
| 20260510095101 | 60 | 38 | 1.0 | 3.0 | 0.00 | 0.00 | 0.00 | 87 | 1013.7 |
| 20260510095018 | 60 | 38 | 1.0 | 3.0 | 0.00 | 0.00 | 0.00 | 87 | 1013.7 |
| 20260510094522 | 61 | 34 | 0.0 | 2.0 | 0.00 | 0.00 | 0.00 | 86 | 1013.8 |
| 20260510094019 | 61 | 32 | 0.0 | 0.0 | 0.00 | 0.00 | 0.00 | 86 | 1013.8 |
| 20260510093536 | 61 | 35 | 0.0 | 0.0 | 0.00 | 0.00 | 0.00 | 86 | 1013.8 |
| 20260510093100 | 61 | 37 | 0.0 | 0.0 | 0.00 | 0.00 | 0.00 | 87 | 1013.9 |
| 20260510093017 | 61 | 37 | 0.0 | 0.0 | 0.00 | 0.00 | 0.00 | 87 | 1013.9 |
| 20260510092532 | 61 | 38 | 0.0 | 0.0 | 0.00 | 0.00 | 0.00 | 86 | 1013.9 |
| 20260510092028 | 61 | 36 | 0.0 | 1.0 | 0.00 | 0.00 | 0.00 | 86 | 1013.9 |
| 20260510091529 | 61 | 37 | 0.0 | 2.0 | 0.00 | 0.00 | 0.00 | 86 | 1013.9 |
| 20260510091024 | 60 | 36 | 1.0 | 2.0 | 0.00 | 0.00 | 0.00 | 87 | 1013.9 |
| 20260510090542 | 61 | 37 | 0.0 | 2.0 | 0.00 | 0.00 | 0.00 | 87 | 1014.0 |
| 20260510090105 | 60 | 34 | 0.0 | 2.0 | 0.00 | 0.00 | 0.00 | 86 | 1014.0 |
| 20260510085518 | 61 | 34 | 1.0 | 2.0 | 0.00 | 0.00 | 0.00 | 86 | 1014.0 |
| 20260510085054 | 61 | 36 | 0.0 | 1.0 | 0.00 | 0.00 | 0.00 | 86 | 1014.0 |
| 20260510084559 | 61 | 35 | 0.0 | 2.0 | 0.00 | 0.00 | 0.00 | 87 | 1014.1 |
| 20260510084517 | 61 | 35 | 0.0 | 2.0 | 0.00 | 0.00 | 0.00 | 87 | 1014.1 |
| 20260510084112 | 60 | 34 | 0.0 | 2.0 | 0.00 | 0.00 | 0.00 | 87 | 1014.1 |
| 20260510084030 | 60 | 34 | 0.0 | 2.0 | 0.00 | 0.00 | 0.00 | 87 | 1014.1 |
| 20260510083605 | 60 | 36 | 1.0 | 2.0 | 0.00 | 0.00 | 0.00 | 87 | 1014.0 |
| 20260510083523 | 60 | 36 | 1.0 | 2.0 | 0.00 | 0.00 | 0.00 | 87 | 1014.0 |
| 20260510083107 | 60 | 35 | 0.0 | 3.0 | 0.00 | 0.00 | 0.00 | 87 | 1014.1 |
| 20260510082541 | 60 | 34 | 1.0 | 3.0 | 0.00 | 0.00 | 0.00 | 87 | 1014.1 |
| 20260510082051 | 60 | 35 | 0.0 | 2.0 | 0.00 | 0.00 | 0.00 | 87 | 1014.1 |
| 20260510081515 | 61 | 32 | 0.0 | 4.0 | 0.00 | 0.00 | 0.00 | 86 | 1014.2 |
| 20260510081031 | 60 | 37 | 1.0 | 4.0 | 0.00 | 0.00 | 0.00 | 87 | 1014.2 |
| 20260510080548 | 61 | 38 | 0.0 | 2.0 | 0.00 | 0.00 | 0.00 | 86 | 1014.2 |
| 20260510080027 | 61 | 36 | 1.0 | 2.0 | 0.00 | 0.00 | 0.00 | 86 | 1014.3 |
| 20260510075603 | 61 | 34 | 0.0 | 2.0 | 0.00 | 0.00 | 0.00 | 86 | 1014.3 |
| 20260510075520 | 61 | 34 | 0.0 | 2.0 | 0.00 | 0.00 | 0.00 | 86 | 1014.3 |
| 20260510075016 | 61 | 38 | 0.0 | 2.0 | 0.00 | 0.00 | 0.00 | 86 | 1014.3 |
| 20260510074520 | 61 | 38 | 0.0 | 2.0 | 0.00 | 0.00 | 0.00 | 86 | 1014.4 |
| 20260510074015 | 61 | 38 | 0.0 | 3.0 | 0.00 | 0.00 | 0.00 | 86 | 1014.4 |
| 20260510073610 | 61 | 36 | 2.0 | 3.0 | 0.00 | 0.00 | 0.00 | 86 | 1014.4 |
| 20260510073029 | 61 | 37 | 327.0 | 2.0 | 0.00 | 0.00 | 0.00 | 86 | 1014.5 |
| 20260510072546 | 0 | 0.0 | 0.0 | 0.00 | 0.00 | 0.00 | 1014.5 | ||
| 20260510072042 | 0 | 0.0 | 0.0 | 0.00 | 0.00 | 0.00 | 1014.4 | ||
| 20260510071615 | 0 | 0.0 | 0.0 | 0.00 | 0.00 | 0.00 | 1014.4 | ||
| 20260510071533 | 0 | 0.0 | 0.0 | 0.00 | 0.00 | 0.00 | 1014.4 | ||
| 20260510071128 | 0 | 0.0 | 0.0 | 0.00 | 0.00 | 0.00 | 1014.5 | ||
| 20260510065615 | 61 | 35 | 1.0 | 3.0 | 0.00 | 0.00 | 0.00 | 86 | 1014.7 |
| 20260510065048 | 61 | 34 | 1.0 | 3.0 | 0.00 | 0.00 | 0.00 | 85 | 1014.7 |
| 20260510064548 | 61 | 38 | 0.0 | 2.0 | 0.00 | 0.00 | 0.00 | 85 | 1014.7 |
| 20260510064102 | 61 | 35 | 0.0 | 1.0 | 0.00 | 0.00 | 0.00 | 86 | 1014.7 |
| 20260510064020 | 61 | 35 | 0.0 | 1.0 | 0.00 | 0.00 | 0.00 | 86 | 1014.7 |
| 20260510063556 | 61 | 35 | 0.0 | 2.0 | 0.00 | 0.00 | 0.00 | 85 | 1014.8 |
| 20260510063100 | 61 | 36 | 0.0 | 2.0 | 0.00 | 0.00 | 0.00 | 85 | 1014.7 |
| 20260510063018 | 61 | 36 | 0.0 | 2.0 | 0.00 | 0.00 | 0.00 | 85 | 1014.7 |
| 20260510062533 | 61 | 36 | 0.0 | 2.0 | 0.00 | 0.00 | 0.00 | 85 | 1014.8 |
| 20260510062108 | 61 | 37 | 0.0 | 1.0 | 0.00 | 0.00 | 0.00 | 85 | 1014.8 |
| 20260510062026 | 61 | 37 | 0.0 | 1.0 | 0.00 | 0.00 | 0.00 | 85 | 1014.8 |
| 20260510061526 | 61 | 36 | 0.0 | 1.0 | 0.00 | 0.00 | 0.00 | 85 | 1014.7 |
| 20260510061043 | 61 | 37 | 0.0 | 2.0 | 0.00 | 0.00 | 0.00 | 86 | 1014.7 |
| 20260510060519 | 61 | 35 | 1.0 | 2.0 | 0.00 | 0.00 | 0.00 | 86 | 1014.7 |
| 20260510060105 | 61 | 37 | 0.0 | 2.0 | 0.00 | 0.00 | 0.00 | 86 | 1014.6 |
| 20260510060022 | 61 | 37 | 0.0 | 2.0 | 0.00 | 0.00 | 0.00 | 86 | 1014.6 |
| 20260510055559 | 60 | 35 | 1.0 | 3.0 | 0.00 | 0.00 | 0.00 | 86 | 1014.7 |
| 20260510055033 | 60 | 34 | 1.0 | 3.0 | 0.00 | 0.00 | 0.00 | 86 | 1014.6 |
| 20260510054515 | 61 | 35 | 2.0 | 3.0 | 0.00 | 0.00 | 0.00 | 86 | 1014.6 |
| 20260510054111 | 61 | 35 | 1.0 | 2.0 | 0.00 | 0.00 | 0.00 | 86 | 1014.8 |
| 20260510053546 | 61 | 38 | 1.0 | 3.0 | 0.00 | 0.00 | 0.00 | 85 | 1014.7 |
| 20260510053109 | 61 | 36 | 1.0 | 3.0 | 0.00 | 0.00 | 0.00 | 85 | 1014.7 |
| 20260510053026 | 61 | 36 | 1.0 | 3.0 | 0.00 | 0.00 | 0.00 | 85 | 1014.7 |
| 20260510052521 | 61 | 36 | 1.0 | 3.0 | 0.00 | 0.00 | 0.00 | 85 | 1014.7 |
| 20260510052057 | 61 | 38 | 2.0 | 3.0 | 0.00 | 0.00 | 0.00 | 85 | 1014.7 |
| 20260510052014 | 61 | 38 | 2.0 | 3.0 | 0.00 | 0.00 | 0.00 | 85 | 1014.7 |
| 20260510051536 | 61 | 34 | 2.0 | 3.0 | 0.00 | 0.00 | 0.00 | 85 | 1014.8 |
| 20260510051110 | 61 | 36 | 1.0 | 4.0 | 0.00 | 0.00 | 0.00 | 86 | 1014.7 |
| 20260510051028 | 61 | 36 | 1.0 | 4.0 | 0.00 | 0.00 | 0.00 | 86 | 1014.7 |
| 20260510050523 | 61 | 38 | 2.0 | 4.0 | 0.00 | 0.00 | 0.00 | 86 | 1014.7 |
| 20260510050103 | 61 | 35 | 1.0 | 3.0 | 0.00 | 0.00 | 0.00 | 86 | 1014.7 |
| 20260510045521 | 61 | 36 | 2.0 | 5.0 | 0.00 | 0.00 | 0.00 | 86 | 1014.7 |
| 20260510045112 | 61 | 38 | 3.0 | 5.0 | 0.00 | 0.00 | 0.00 | 85 | 1014.7 |
| 20260510045030 | 61 | 38 | 3.0 | 5.0 | 0.00 | 0.00 | 0.00 | 85 | 1014.7 |
| 20260510044516 | 61 | 37 | 2.0 | 4.0 | 0.00 | 0.00 | 0.00 | 85 | 1014.6 |
| 20260510044049 | 61 | 36 | 2.0 | 4.0 | 0.00 | 0.00 | 0.00 | 85 | 1014.6 |
| 20260510043549 | 61 | 38 | 2.0 | 4.0 | 0.00 | 0.00 | 0.00 | 85 | 1014.5 |
| 20260510043046 | 61 | 36 | 2.0 | 4.0 | 0.00 | 0.00 | 0.00 | 85 | 1014.5 |
| 20260510042600 | 61 | 35 | 2.0 | 3.0 | 0.00 | 0.00 | 0.00 | 85 | 1014.5 |
| 20260510042518 | 61 | 35 | 2.0 | 3.0 | 0.00 | 0.00 | 0.00 | 85 | 1014.5 |
| 20260510042113 | 61 | 36 | 1.0 | 3.0 | 0.00 | 0.00 | 0.00 | 85 | 1014.5 |
| 20260510041530 | 61 | 35 | 2.0 | 3.0 | 0.00 | 0.00 | 0.00 | 85 | 1014.4 |
| 20260510041106 | 61 | 37 | 1.0 | 3.0 | 0.00 | 0.00 | 0.00 | 85 | 1014.4 |
| 20260510041023 | 61 | 37 | 1.0 | 3.0 | 0.00 | 0.00 | 0.00 | 85 | 1014.4 |
| 20260510040559 | 61 | 36 | 1.0 | 4.0 | 0.00 | 0.00 | 0.00 | 85 | 1014.4 |
| 20260510040516 | 61 | 36 | 1.0 | 4.0 | 0.00 | 0.00 | 0.00 | 85 | 1014.4 |
| 20260510040019 | 61 | 38 | 2.0 | 5.0 | 0.00 | 0.00 | 0.00 | 85 | 1014.3 |
| 20260510035536 | 61 | 38 | 3.0 | 5.0 | 0.00 | 0.00 | 0.00 | 84 | 1014.3 |
| 20260510035030 | 61 | 38 | 2.0 | 5.0 | 0.00 | 0.00 | 0.00 | 84 | 1014.3 |
| 20260510034553 | 61 | 37 | 2.0 | 5.0 | 0.00 | 0.00 | 0.00 | 84 | 1014.3 |
| 20260510034027 | 61 | 38 | 3.0 | 5.0 | 0.00 | 0.00 | 0.00 | 84 | 1014.1 |
| 20260510033603 | 61 | 38 | 3.0 | 5.0 | 0.00 | 0.00 | 0.00 | 84 | 1014.1 |
| 20260510033520 | 61 | 38 | 3.0 | 5.0 | 0.00 | 0.00 | 0.00 | 84 | 1014.1 |
| 20260510033023 | 61 | 36 | 3.0 | 7.0 | 0.00 | 0.00 | 0.00 | 84 | 1014.0 |
| 20260510032538 | 61 | 34 | 4.0 | 9.0 | 0.00 | 0.00 | 0.00 | 83 | 1014.0 |
| 20260510032112 | 62 | 35 | 4.0 | 9.0 | 0.00 | 0.00 | 0.00 | 83 | 1013.9 |
| 20260510031514 | 62 | 32 | 3.0 | 6.0 | 0.00 | 0.00 | 0.00 | 83 | 1013.8 |
| 20260510031109 | 62 | 34 | 4.0 | 8.0 | 0.00 | 0.00 | 0.00 | 82 | 1013.8 |
| 20260510030602 | 62 | 38 | 4.0 | 6.0 | 0.00 | 0.00 | 0.00 | 82 | 1013.7 |
| 20260510030520 | 62 | 38 | 4.0 | 6.0 | 0.00 | 0.00 | 0.00 | 82 | 1013.7 |
| 20260510030043 | 63 | 34 | 3.0 | 6.0 | 0.00 | 0.00 | 0.00 | 81 | 1013.7 |
| 20260510025537 | 63 | 38 | 3.0 | 6.0 | 0.00 | 0.00 | 0.00 | 80 | 1013.7 |
| 20260510025052 | 63 | 34 | 3.0 | 5.0 | 0.00 | 0.00 | 0.00 | 80 | 1013.6 |
| 20260510024554 | 63 | 38 | 3.0 | 6.0 | 0.00 | 0.00 | 0.00 | 80 | 1013.6 |
| 20260510024029 | 63 | 36 | 4.0 | 6.0 | 0.00 | 0.00 | 0.00 | 81 | 1013.5 |
| 20260510023525 | 63 | 36 | 4.0 | 6.0 | 0.00 | 0.00 | 0.00 | 79 | 1013.5 |
| 20260510023026 | 63 | 32 | 4.0 | 7.0 | 0.00 | 0.00 | 0.00 | 79 | 1013.5 |
| 20260510022601 | 64 | 36 | 5.0 | 7.0 | 0.00 | 0.00 | 0.00 | 78 | 1013.4 |
| 20260510022015 | 64 | 35 | 3.0 | 7.0 | 0.00 | 0.00 | 0.00 | 79 | 1013.4 |
| 20260510021537 | 64 | 36 | 4.0 | 7.0 | 0.00 | 0.00 | 0.00 | 79 | 1013.3 |
| 20260510021031 | 64 | 37 | 4.0 | 7.0 | 0.00 | 0.00 | 0.00 | 78 | 1013.3 |
| 20260510020526 | 64 | 35 | 4.0 | 7.0 | 0.00 | 0.00 | 0.00 | 77 | 1013.3 |
| 20260510020028 | 65 | 37 | 4.0 | 7.0 | 0.00 | 0.00 | 0.00 | 76 | 1013.2 |
| 20260510015522 | 65 | 35 | 4.0 | 6.0 | 0.00 | 0.00 | 0.00 | 75 | 1013.3 |
| 20260510015022 | 66 | 35 | 5.0 | 8.0 | 0.00 | 0.00 | 0.00 | 75 | 1013.3 |
| 20260510014603 | 66 | 38 | 4.0 | 9.0 | 0.00 | 0.00 | 0.00 | 74 | 1013.3 |
| 20260510014520 | 66 | 38 | 4.0 | 9.0 | 0.00 | 0.00 | 0.00 | 74 | 1013.3 |
| 20260510014021 | 66 | 34 | 5.0 | 8.0 | 0.00 | 0.00 | 0.00 | 75 | 1013.3 |
| 20260510013516 | 66 | 36 | 5.0 | 8.0 | 0.00 | 0.00 | 0.00 | 75 | 1013.2 |
| 20260510013020 | 67 | 36 | 4.0 | 9.0 | 0.00 | 0.00 | 0.00 | 74 | 1013.2 |
| 20260510012516 | 66 | 36 | 4.0 | 9.0 | 0.00 | 0.00 | 0.00 | 74 | 1013.1 |
| 20260510012052 | 67 | 34 | 4.0 | 8.0 | 0.00 | 0.00 | 0.00 | 74 | 1013.2 |
| 20260510011531 | 66 | 36 | 5.0 | 9.0 | 0.00 | 0.00 | 0.00 | 73 | 1013.2 |
| 20260510011107 | 67 | 37 | 5.0 | 9.0 | 0.00 | 0.00 | 0.00 | 73 | 1013.2 |
| 20260510011024 | 67 | 37 | 5.0 | 9.0 | 0.00 | 0.00 | 0.00 | 73 | 1013.2 |
| 20260510010600 | 66 | 35 | 6.0 | 10.0 | 0.00 | 0.00 | 0.00 | 72 | 1013.2 |
| 20260510010518 | 66 | 35 | 6.0 | 10.0 | 0.00 | 0.00 | 0.00 | 72 | 1013.2 |
| 20260510010020 | 67 | 34 | 6.0 | 10.0 | 0.00 | 0.00 | 0.00 | 72 | 1013.2 |
| 20260510005535 | 67 | 37 | 5.0 | 11.0 | 0.00 | 0.00 | 0.00 | 71 | 1013.2 |
| 20260510005107 | 67 | 35 | 6.0 | 11.0 | 0.00 | 0.00 | 0.00 | 72 | 1013.3 |
| 20260510005024 | 67 | 35 | 6.0 | 11.0 | 0.00 | 0.00 | 0.00 | 72 | 1013.3 |
| 20260510004608 | 67 | 38 | 7.0 | 12.0 | 0.00 | 0.00 | 0.00 | 71 | 1013.3 |
| 20260510004526 | 67 | 38 | 7.0 | 12.0 | 0.00 | 0.00 | 0.00 | 71 | 1013.3 |
| 20260510004021 | 68 | 35 | 7.0 | 12.0 | 0.00 | 0.00 | 0.00 | 71 | 1013.3 |
| 20260510003536 | 68 | 35 | 8.0 | 12.0 | 0.00 | 0.00 | 0.00 | 70 | 1013.3 |
| 20260510003038 | 68 | 32 | 7.0 | 12.0 | 0.00 | 0.00 | 0.00 | 69 | 1013.3 |
| 20260510002532 | 70 | 36 | 7.0 | 14.0 | 0.00 | 0.00 | 0.00 | 67 | 1013.2 |
| 20260510002108 | 69 | 35 | 9.0 | 14.0 | 0.00 | 0.00 | 0.00 | 67 | 1013.2 |
| 20260510002026 | 69 | 35 | 9.0 | 14.0 | 0.00 | 0.00 | 0.00 | 67 | 1013.2 |
| 20260510001548 | 70 | 36 | 7.0 | 13.0 | 0.00 | 0.00 | 0.00 | 67 | 1013.2 |
| 20260510001044 | 70 | 34 | 7.0 | 13.0 | 0.00 | 0.00 | 0.00 | 68 | 1013.1 |
| 20260510000519 | 70 | 37 | 7.0 | 11.0 | 0.00 | 0.00 | 0.00 | 67 | 1013.0 |
| 20260510000103 | 70 | 35 | 6.0 | 9.0 | 0.00 | 0.00 | 0.00 | 67 | 1012.9 |
| 20260510000021 | 70 | 35 | 6.0 | 9.0 | 0.00 | 0.00 | 0.00 | 67 | 1012.9 |
| 20260509235537 | 69 | 37 | 6.0 | 10.0 | 0.00 | 0.00 | 0.00 | 65 | 1012.9 |
| 20260509235031 | 70 | 36 | 6.0 | 10.0 | 0.00 | 0.00 | 0.00 | 65 | 1012.9 |
| 20260509234535 | 69 | 34 | 6.0 | 9.0 | 0.00 | 0.00 | 0.00 | 66 | 1012.8 |
| 20260509234029 | 71 | 36 | 6.0 | 11.0 | 0.00 | 0.00 | 0.00 | 65 | 1012.9 |
| 20260509233546 | 70 | 36 | 6.0 | 11.0 | 0.00 | 0.00 | 0.00 | 67 | 1012.9 |
| 20260509233032 | 69 | 32 | 6.0 | 11.0 | 0.00 | 0.00 | 0.00 | 67 | 1013.0 |
| 20260509232604 | 70 | 36 | 7.0 | 11.0 | 0.00 | 0.00 | 0.00 | 67 | 1013.0 |
| 20260509232043 | 72 | 35 | 5.0 | 10.0 | 0.00 | 0.00 | 0.00 | 64 | 1013.0 |
| 20260509231523 | 70 | 36 | 6.0 | 11.0 | 0.00 | 0.00 | 0.00 | 67 | 1013.0 |
| 20260509231040 | 71 | 35 | 7.0 | 11.0 | 0.00 | 0.00 | 0.00 | 66 | 1013.1 |
| 20260509230536 | 71 | 36 | 7.0 | 11.0 | 0.00 | 0.00 | 0.00 | 65 | 1013.1 |
| 20260509230037 | 70 | 35 | 6.0 | 10.0 | 0.00 | 0.00 | 0.00 | 65 | 1013.1 |
| 20260509225531 | 70 | 36 | 6.0 | 11.0 | 0.00 | 0.00 | 0.00 | 67 | 1013.1 |
| 20260509225106 | 71 | 35 | 7.0 | 13.0 | 0.00 | 0.00 | 0.00 | 66 | 1013.1 |
| 20260509225024 | 71 | 35 | 7.0 | 13.0 | 0.00 | 0.00 | 0.00 | 66 | 1013.1 |
| 20260509224604 | 71 | 35 | 7.0 | 12.0 | 0.00 | 0.00 | 0.00 | 66 | 1013.2 |
| 20260509224522 | 71 | 35 | 7.0 | 12.0 | 0.00 | 0.00 | 0.00 | 66 | 1013.2 |
| 20260509224058 | 70 | 35 | 8.0 | 12.0 | 0.00 | 0.00 | 0.00 | 67 | 1013.3 |
| 20260509224016 | 70 | 35 | 8.0 | 12.0 | 0.00 | 0.00 | 0.00 | 67 | 1013.3 |
| 20260509223611 | 70 | 35 | 7.0 | 11.0 | 0.00 | 0.00 | 0.00 | 67 | 1013.3 |
| 20260509223053 | 70 | 32 | 6.0 | 10.0 | 0.00 | 0.00 | 0.00 | 67 | 1013.4 |
| 20260509222607 | 71 | 36 | 6.0 | 10.0 | 0.00 | 0.00 | 0.00 | 67 | 1013.4 |
| 20260509222101 | 70 | 34 | 5.0 | 11.0 | 0.00 | 0.00 | 0.00 | 66 | 1013.5 |
| 20260509221542 | 69 | 34 | 7.0 | 10.0 | 0.00 | 0.00 | 0.00 | 67 | 1013.5 |
| 20260509221017 | 69 | 34 | 5.0 | 10.0 | 0.00 | 0.00 | 0.00 | 66 | 1013.5 |
| 20260509220552 | 70 | 36 | 6.0 | 10.0 | 0.00 | 0.00 | 0.00 | 66 | 1013.6 |
| 20260509220015 | 70 | 36 | 7.0 | 12.0 | 0.00 | 0.00 | 0.00 | 65 | 1013.6 |
| 20260509215533 | 71 | 35 | 8.0 | 14.0 | 0.00 | 0.00 | 0.00 | 65 | 1013.6 |
| 20260509215107 | 71 | 37 | 7.0 | 14.0 | 0.00 | 0.00 | 0.00 | 65 | 1013.7 |